Regional Weather Roundup
Issued by NWS

Home | Current Version | Previous Version | Text Only | Print | Product List | Glossary Off
Versions: 1 2 3 4 5 6 7 8 9 10 11 12 13 14 15 16 17 18 19 20 21 22 23 24 25 26 27 28 29 30 31 32 33 34 35 36 37 38 39 40 41 42 43 44 45 46 47 48 49 50

000
ASUS45 KCYS 270710
RWRWY

WYOMING REGIONAL WEATHER ROUNDUP
NATIONAL WEATHER SERVICE CHEYENNE WY
100 AM MDT SAT AUG 27 2016

NOTE:  "FAIR" INDICATES FEW OR NO CLOUDS BELOW 12,000 FEET
WITH NO SIGNIFICANT WEATHER AND/OR OBSTRUCTIONS TO VISIBILITY.

WYZ001-270800-
YELLOWSTONE NATIONAL PARK

CITY           SKY/WX    TMP DP  RH WIND       PRES   REMARKS
LK YELLOWSTONE   N/A     39  31  72 NW3       30.19S
W YELLOWSTONE  NOT AVBL

$$
WYZ002>013-054>058-071-098>099-270800-
NORTHERN WYOMING

CITY           SKY/WX    TMP DP  RH WIND       PRES   REMARKS
JACKSON        FAIR      37  23  56 N5        30.13R WCI  34
CODY           MOCLDY    54  43  66 SW6       30.03F
GREYBULL       FAIR      55  41  59 CALM      29.98F
WORLAND        FAIR      49  42  77 SE3       29.99F
SHERIDAN       MOCLDY    58  45  62 E7        30.00F
BUFFALO        MOCLDY    55  39  54 S3        30.06F
GILLETTE       MOCLDY    53  48  83 W7        30.05R
HULETT         FAIR      50  45  81 S8        30.04F
NEWCASTLE      FAIR      55  48  76 E8        30.06F

$$
WYZ014>020-022>026-101>103-270800-
CENTRAL WYOMING

CITY           SKY/WX    TMP DP  RH WIND       PRES   REMARKS
BIG PINEY      FAIR      40  32  73 N6        30.18S
PINEDALE       FAIR      36  30  80 NW6       30.19S WCI  31
DUBOIS         FAIR      41  27  56 NW7       30.16S
LANDER         FAIR      54  42  64 NW6       30.06S
RIVERTON       FAIR      50  42  74 N9        30.07S
CASPER         FAIR      49  46  90 W5        30.07S
DOUGLAS        FAIR      49  46  90 CALM      30.07F

$$
WYZ021-027>030-104>119-270800-
SOUTHERN WYOMING

CITY           SKY/WX    TMP DP  RH WIND       PRES   REMARKS
EVANSTON       FAIR      55  20  25 SW5       30.20S
FORT BRIDGER   FAIR      56  23  27 SW10      30.20F
ROCK SPRINGS   FAIR      54  36  50 SW13      30.16S
DIXON          FAIR      57  38  50 S7        30.23S
RAWLINS        FAIR      56  37  49 SW18G29   30.16S
SARATOGA       FAIR      48  36  61 E16       30.20S
LARAMIE        FAIR      50  37  61 SW9       30.19F
CHEYENNE       FAIR      52  46  80 W7        30.16F
TORRINGTON     FAIR      56  56 100 SE10      30.04F
PINE BLUFFS    FAIR      48  48 100 CALM      30.13S

$$



USA.gov is the U.S. government's official web portal to all federal, state and local government web resources and services.